Hourly Weather Bolshie Ermaki

Today, 17 June, Thursday

Time Temperature Precipitation Wind Pressure Humidity
00:00 +13°C° 0 mm 1 mps 746 mmHg 80%
01:00 +13°C° 0 mm 2 mps 746 mmHg 82%
02:00 +12°C° 0 mm 2 mps 746 mmHg 84%
03:00 +13°C° 0 mm 1 mps 746 mmHg 83%
04:00 +13°C° 0 mm 1 mps 747 mmHg 81%
05:00 +14°C° 0 mm 1 mps 747 mmHg 79%
06:00 +16°C° 0 mm 1 mps 747 mmHg 70%
07:00 +18°C° 0 mm 2 mps 748 mmHg 61%
08:00 +20°C° 0 mm 2 mps 748 mmHg 51%
09:00 +21°C° 0 mm 2 mps 748 mmHg 47%
10:00 +23°C° 0 mm 2 mps 748 mmHg 43%
11:00 +25°C° 0 mm 2 mps 749 mmHg 39%
12:00 +25°C° 0 mm 2 mps 749 mmHg 39%
13:00 +25°C° 0 mm 2 mps 749 mmHg 39%
14:00 +26°C° 0 mm 2 mps 749 mmHg 38%
15:00 +25°C° 0 mm 2 mps 749 mmHg 43%
16:00 +25°C° 0 mm 2 mps 749 mmHg 47%
17:00 +25°C° 0 mm 2 mps 749 mmHg 52%
18:00 +23°C° 0 mm 2 mps 749 mmHg 61%
19:00 +19°C° 0 mm 2 mps 749 mmHg 70%
20:00 +17°C° 0 mm 2 mps 749 mmHg 79%
21:00 +17°C° 0 mm 2 mps 749 mmHg 80%
22:00 +16°C° 0 mm 2 mps 750 mmHg 81%
23:00 +15°C° 0 mm 2 mps 750 mmHg 82%

Tomorrow, 18 June, Friday

Time Temperature Precipitation Wind Pressure Humidity
00:00 +15°C° 0 mm 1 mps 750 mmHg 84%
01:00 +14°C° 0 mm 1 mps 750 mmHg 85%
02:00 +14°C° 0 mm 1 mps 750 mmHg 87%
03:00 +14°C° 0 mm 1 mps 750 mmHg 86%
04:00 +15°C° 0 mm 1 mps 751 mmHg 85%
05:00 +16°C° 0 mm 1 mps 751 mmHg 84%
06:00 +19°C° 0 mm 1 mps 751 mmHg 75%
07:00 +21°C° 0 mm 1 mps 751 mmHg 66%
08:00 +23°C° 0 mm 1 mps 751 mmHg 57%
09:00 +24°C° 0 mm 2 mps 751 mmHg 52%
10:00 +25°C° 0 mm 2 mps 751 mmHg 47%
11:00 +26°C° 0 mm 2 mps 751 mmHg 42%
12:00 +26°C° 0 mm 2 mps 751 mmHg 41%
13:00 +27°C° 0 mm 2 mps 751 mmHg 41%
14:00 +27°C° 0 mm 2 mps 750 mmHg 41%
15:00 +27°C° 0 mm 2 mps 750 mmHg 45%
16:00 +26°C° 0 mm 2 mps 750 mmHg 49%
17:00 +26°C° 0 mm 2 mps 750 mmHg 53%
18:00 +24°C° 0 mm 2 mps 750 mmHg 63%
19:00 +21°C° 0 mm 2 mps 750 mmHg 72%
20:00 +18°C° 0 mm 2 mps 750 mmHg 82%
21:00 +18°C° 0 mm 2 mps 750 mmHg 85%
22:00 +17°C° 0 mm 2 mps 750 mmHg 88%
23:00 +16°C° 0 mm 2 mps 750 mmHg 91%

Day after tomorrow, 19 June, Saturday

Time Temperature Precipitation Wind Pressure Humidity
00:00 +15°C° 0 mm 2 mps 750 mmHg 92%
01:00 +15°C° 0 mm 1 mps 750 mmHg 94%
02:00 +14°C° 0 mm 1 mps 750 mmHg 95%
03:00 +15°C° 0 mm 1 mps 751 mmHg 93%
04:00 +16°C° 0 mm 1 mps 751 mmHg 91%
05:00 +16°C° 0 mm 1 mps 751 mmHg 90%
06:00 +19°C° 0 mm 1 mps 751 mmHg 81%
07:00 +21°C° 0 mm 1 mps 751 mmHg 73%
08:00 +23°C° 0 mm 2 mps 751 mmHg 65%
09:00 +24°C° 0 mm 2 mps 750 mmHg 60%
10:00 +25°C° 0 mm 2 mps 750 mmHg 54%
11:00 +26°C° 0 mm 2 mps 750 mmHg 49%
12:00 +27°C° 0 mm 2 mps 750 mmHg 47%
13:00 +27°C° 0 mm 2 mps 749 mmHg 45%
14:00 +28°C° 0 mm 2 mps 749 mmHg 42%
15:00 +28°C° 0 mm 2 mps 749 mmHg 46%
16:00 +27°C° 0 mm 2 mps 749 mmHg 49%
17:00 +27°C° 0 mm 2 mps 748 mmHg 53%
18:00 +24°C° 0 mm 2 mps 748 mmHg 63%
19:00 +21°C° 0 mm 2 mps 748 mmHg 72%
20:00 +19°C° 0 mm 2 mps 748 mmHg 82%
21:00 +18°C° 0 mm 2 mps 748 mmHg 85%
22:00 +17°C° 0 mm 2 mps 748 mmHg 88%
23:00 +16°C° 0 mm 2 mps 749 mmHg 90%

20 June, Sunday

Time Temperature Precipitation Wind Pressure Humidity
00:00 +15°C° 0 mm 2 mps 749 mmHg 92%
01:00 +15°C° 0 mm 1 mps 749 mmHg 93%
02:00 +14°C° 0 mm 1 mps 749 mmHg 94%
03:00 +15°C° 0 mm 1 mps 749 mmHg 92%
04:00 +16°C° 0 mm 1 mps 749 mmHg 91%
05:00 +16°C° 0 mm 1 mps 749 mmHg 89%
06:00 +19°C° 0 mm 1 mps 749 mmHg 81%
07:00 +21°C° 0 mm 1 mps 749 mmHg 72%
08:00 +24°C° 0 mm 1 mps 749 mmHg 64%
09:00 +25°C° 0 mm 1 mps 748 mmHg 58%
10:00 +26°C° 0 mm 2 mps 748 mmHg 53%
11:00 +28°C° 0 mm 2 mps 748 mmHg 47%
12:00 +28°C° 0 mm 2 mps 748 mmHg 45%
13:00 +29°C° 0 mm 2 mps 748 mmHg 44%
14:00 +29°C° 0 mm 1 mps 747 mmHg 43%
15:00 +29°C° 0 mm 1 mps 747 mmHg 46%
16:00 +29°C° 0 mm 2 mps 747 mmHg 50%
17:00 +29°C° 0 mm 2 mps 747 mmHg 53%
18:00 +26°C° 0 mm 2 mps 747 mmHg 63%
19:00 +24°C° 0 mm 2 mps 746 mmHg 73%
20:00 +21°C° 0 mm 2 mps 746 mmHg 82%
21:00 +20°C° 0 mm 2 mps 746 mmHg 84%
22:00 +19°C° 0 mm 2 mps 746 mmHg 86%
23:00 +18°C° 0 mm 2 mps 747 mmHg 88%

21 June, Monday

Time Temperature Precipitation Wind Pressure Humidity
00:00 +19°C° 0 mm 1 mps 747 mmHg 90%
01:00 +19°C° 0 mm 1 mps 747 mmHg 91%
02:00 +18°C° 0 mm 1 mps 747 mmHg 93%
03:00 +19°C° 0 mm 1 mps 747 mmHg 91%
04:00 +19°C° 0 mm 1 mps 747 mmHg 89%
05:00 +20°C° 0 mm 1 mps 747 mmHg 87%
06:00 +22°C° 0 mm 1 mps 747 mmHg 79%
07:00 +23°C° 0 mm 1 mps 747 mmHg 71%
08:00 +25°C° 0 mm 2 mps 747 mmHg 63%
09:00 +26°C° 0 mm 2 mps 746 mmHg 57%
10:00 +27°C° 0 mm 2 mps 746 mmHg 51%
11:00 +29°C° 0 mm 2 mps 746 mmHg 46%
12:00 +29°C° 0 mm 2 mps 746 mmHg 45%
13:00 +29°C° 0 mm 3 mps 746 mmHg 43%
14:00 +30°C° 0 mm 3 mps 746 mmHg 42%
15:00 +29°C° 0 mm 3 mps 746 mmHg 47%
16:00 +29°C° 0 mm 3 mps 745 mmHg 52%
17:00 +28°C° 0 mm 2 mps 745 mmHg 57%
18:00 +26°C° 0 mm 2 mps 745 mmHg 66%
19:00 +24°C° 0 mm 2 mps 745 mmHg 75%
20:00 +21°C° 0 mm 2 mps 745 mmHg 84%
21:00 +21°C° 0 mm 2 mps 745 mmHg 87%
22:00 +20°C° 0 mm 2 mps 745 mmHg 90%
23:00 +19°C° 0 mm 2 mps 746 mmHg 93%

22 June, Tuesday

Time Temperature Precipitation Wind Pressure Humidity
00:00 +19°C° 0 mm 2 mps 745 mmHg 94%
01:00 +19°C° 0 mm 2 mps 745 mmHg 95%
02:00 +18°C° 0 mm 2 mps 745 mmHg 96%
03:00 +19°C° 0 mm 2 mps 745 mmHg 95%
04:00 +19°C° 0 mm 2 mps 746 mmHg 94%
05:00 +20°C° 0 mm 2 mps 746 mmHg 93%
06:00 +23°C° 0 mm 2 mps 746 mmHg 84%
07:00 +25°C° 0 mm 3 mps 746 mmHg 75%
08:00 +27°C° 0 mm 3 mps 746 mmHg 67%
09:00 +28°C° 0 mm 3 mps 746 mmHg 61%
10:00 +29°C° 0 mm 3 mps 746 mmHg 54%
11:00 +31°C° 0 mm 3 mps 746 mmHg 48%
12:00 +31°C° 0 mm 3 mps 746 mmHg 46%
13:00 +33°C° 0 mm 3 mps 746 mmHg 44%
14:00 +33°C° 0 mm 3 mps 746 mmHg 43%
15:00 +33°C° 0 mm 3 mps 746 mmHg 47%
16:00 +31°C° 0 mm 3 mps 746 mmHg 51%
17:00 +30°C° 0 mm 3 mps 746 mmHg 55%
18:00 +28°C° 0 mm 3 mps 745 mmHg 64%
19:00 +26°C° 0 mm 2 mps 745 mmHg 73%
20:00 +24°C° 0 mm 2 mps 745 mmHg 83%
21:00 +23°C° 0 mm 2 mps 745 mmHg 86%
22:00 +21°C° 0 mm 2 mps 746 mmHg 90%
23:00 +20°C° 0 mm 2 mps 746 mmHg 94%
Show more